{"data":{"norad_id":53682,"epoch":"2026-09-20T14:01:18.637536Z","epoch_age_seconds":74406,"freshness":"FRESH","line1":"1 53682U 22105AL  26263.58424349  .00000445  00000+0  16099-4 0  9993","line2":"2 53682  97.2842 140.2866 0001816  90.5440 269.6011 15.33438325222753","mean_motion":15.33438325,"eccentricity":0.0001816,"inclination_deg":97.2842,"raan_deg":140.2866,"arg_perigee_deg":90.544,"mean_anomaly_deg":269.6011,"bstar":1.6099e-5,"rev_number":22275,"period_min":93.906613427051,"perigee_km":464.32021872762,"apogee_km":466.8058505802,"semimajor_km":6843.7000346539,"source":"CELESTRAK","updated_at":"2026-09-21T09:00:32.978597Z"}}